x

Central Aleutians 230nm Sw Dutch Harbor (46072) Wave Buoy

8:50 - Fri 19th Dec 2014 All times are UTC.

  • Sig Wave height 16.1ft
  • Peak Period 13s
  • Average Period 9s
  • Wind
    22mph, 29mph gusts
  • Sea Temp 43°f
  • Air Temp 40°f
  • Sea Pressure 966.9mb

More Historic Weather Station data

Upgrade to MSW Pro to gain access to the past 30 days of data for over 8000 Wavebouys and Weather Stations around the globe.

Join Pro

Comparision Forecast

View Surf forecast
   
ven. 12/19 8:50 16ft 13s 9s 22 29 mph 966.9mb 43f 40f
7:50 15.5ft 13s 8s 20 25 mph 967mb 43f 40f
6:50 19ft 13s 9s 25 29 mph 966.8mb 43f 39f
5:50 16.5ft 14s 8s 25 31 mph 966.6mb 43f 40f
4:50 16.5ft 11s 8s 25 31 mph 966.9mb 43f 40f
3:50 17ft 13s 9s 25 29 mph 967.2mb 43f 42f
2:50 14.5ft 12s 8s 25 29 mph 967.6mb 43f 42f
1:50 12ft 10s 7s 22 27 mph 968.1mb 43f 42f
12:50 11ft 9s 7s 20 25 mph 968.4mb 43f 42f
11:50 10.5ft 9s 7s 18 25 mph 968.7mb 43f 41f
10:50 12ft 11s 8s 18 25 mph 969.2mb 43f 40f
9:50 12.5ft 10s 8s 13 20 mph 969.5mb 43f 41f
8:50 12.5ft 10s 8s 16 20 mph 969.6mb 43f 41f
7:50 12.5ft 10s 8s 18 22 mph 969.4mb 43f 41f
6:50 14ft 10s 8s 20 22 mph 968.8mb 43f 42f
5:50 14ft 9s 8s 20 25 mph 968.7mb 43f 41f
4:50 14.5ft 10s 8s 16 20 mph 968.5mb 43f 40f
3:50 15ft 10s 7s 13 20 mph 969.2mb 43f 41f
2:50 15ft 9s 7s 27 34 mph 968.4mb 43f 40f
1:50 14.5ft 8s 7s 29 34 mph 969.7mb 43f 39f
12:50 15ft 8s 7s 31 38 mph 971.1mb 43f 38f
jeu. 12/18 11:50 15ft 8s 6s 31 40 mph 972.8mb 43f 38f
10:50 13ft 8s 6s 34 43 mph 974.5mb 43f 37f
9:50 13.5ft 7s 6s 36 43 mph 975.6mb 43f 37f
8:50 12.5ft 7s 6s 36 45 mph 977.1mb 43f 37f
7:50 11ft 11s 6s 34 43 mph 978.8mb 43f 37f
6:50 11ft 11s 6s 31 38 mph 980.5mb 43f 36f
5:50 10.5ft 12s 6s 29 34 mph 982.3mb 43f 36f
4:50 12ft 11s 7s 27 34 mph 983.7mb 43f 35f
3:50 12ft 11s 7s 27 34 mph 985.9mb 43f 36f
2:50 11.5ft 11s 8s 25 29 mph 987.6mb 43f 38f
1:50 12ft 12s 8s 22 29 mph 989.7mb 43f 37f
12:50 10.5ft 11s 8s 18 27 mph 991.2mb 43f 37f
11:50 11ft 12s 8s 16 22 mph 992.9mb 43f 36f
10:50 11.5ft 11s 9s 11 18 mph 995mb 43f 36f
9:50 11.5ft 11s 9s 4 9 mph 996mb 43f 36f
8:50 12ft 13s 8s 2 7 mph 997.1mb 43f 35f
7:50 12.5ft 11s 8s 7 11 mph 997.8mb 43f 35f
6:50 14ft 11s 8s 7 13 mph 998.4mb 43f 36f
5:50 13ft 12s 8s 7 9 mph 999.1mb 43f 35f
4:50 14ft 12s 8s 13 18 mph 999.3mb 43f 37f
3:50 14ft 13s 8s 16 22 mph 999.2mb 43f 36f
2:50 14ft 13s 8s 18 25 mph 999mb 44f 37f
1:50 13ft 10s 8s 20 25 mph 998.7mb 44f 37f
12:50 14ft 12s 8s 22 27 mph 998.5mb 44f 37f
mer. 12/17 11:50 11.5ft 11s 7s 22 29 mph 997.9mb 44f 37f
10:50 12ft 9s 8s 22 29 mph 997.4mb 43f 37f
9:50 12.5ft 12s 8s 20 29 mph 997.2mb 43f 36f
8:50 13.5ft 11s 8s 18 22 mph 996.4mb 43f 37f
7:50 12.5ft 11s 8s 20 27 mph 995.5mb 43f 37f
6:50 13.5ft 12s 8s 22 29 mph 994.4mb 43f 37f
5:50 13ft 12s 8s 18 22 mph 993.8mb 43f 38f
4:50 11.5ft 12s 8s 20 25 mph 992.8mb 43f 37f
3:50 11ft 11s 8s 16 22 mph 992.1mb 43f 38f
2:50 12ft 11s 9s 20 27 mph 991.3mb 43f 37f
1:50 12ft 11s 9s 13 20 mph 991mb 43f 39f
12:50 11ft 11s 8s 11 13 mph 990.3mb 43f 38f
11:50 11ft 11s 9s 9 13 mph 989.8mb 43f 38f
10:50 12ft 11s 9s 7 11 mph 989.6mb 43f 38f
9:50 11ft 11s 8s 7 9 mph 989.3mb 43f 38f
8:50 11ft 10s 8s 7 11 mph 989.4mb 43f 38f
7:50 11.5ft 12s 9s 9 13 mph 988.9mb 43f 38f
6:50 12.5ft 11s 9s 9 13 mph 988.8mb 43f 38f
5:50 12ft 11s 8s 7 11 mph 988.8mb 43f 38f
4:50 12.5ft 11s 8s 11 13 mph 988.5mb 43f 38f
3:50 12ft 11s 8s 4 9 mph 988.8mb 43f 38f
2:50 12.5ft 11s 8s 7 9 mph 988.7mb 43f 38f
1:50 13ft 11s 8s 9 13 mph 988.4mb 43f 37f
12:50 11ft 11s 8s 16 18 mph 988.2mb 43f 38f
mar. 12/16 11:50 11.5ft 12s 8s 16 22 mph 988.4mb 44f 38f
10:50 12.5ft 11s 8s 20 25 mph 988.9mb 43f 38f
9:50 12ft 12s 7s 22 27 mph 989.3mb 43f 38f
8:50 12.5ft 11s 7s 22 27 mph 989.4mb 43f 39f
7:50 12.5ft 12s 7s 22 27 mph 989.6mb 43f 39f
6:50 12.5ft 11s 7s 20 27 mph 988.9mb 43f 38f
5:50 11ft 11s 7s 25 29 mph 988.9mb 43f 40f
4:50 12ft 12s 8s 22 29 mph 989.4mb 43f 40f
3:50 12.5ft 12s 9s 16 20 mph 990mb 43f 38f
2:50 12ft 11s 9s 16 20 mph 990.4mb 43f 38f
1:50 12ft 12s 8s 13 18 mph 990.5mb 43f 37f
12:50 11.5ft 11s 9s 13 18 mph 990.6mb 43f 38f
11:50 12ft 12s 9s 16 20 mph 990.9mb 43f 38f
10:50 11ft 12s 9s 11 13 mph 990.9mb 43f 39f
9:50 13ft 13s 10s 13 18 mph 990.9mb 43f 37f
8:50 12ft 13s 10s 4 9 mph 991mb 43f 37f
7:50 11ft 12s 9s 16 25 mph 991.3mb 43f 38f
6:50 11ft 12s 9s 7 9 mph 991.5mb 43f 37f
5:50 11ft 12s 8s 11 13 mph 991.5mb 43f 37f
4:50 10ft 13s 8s 18 25 mph 991.4mb 43f 40f
3:50 11ft 13s 8s 16 18 mph 991.3mb 43f 40f
2:50 11ft 13s 8s 16 20 mph 991.3mb 43f 40f
1:50 11.5ft 12s 8s 18 25 mph 991.4mb 43f 40f
12:50 12ft 12s 8s 16 20 mph 991.7mb 43f 40f
lun. 12/15 11:50 12ft 11s 8s 13 18 mph 992.1mb 43f 40f
10:50 13.5ft 12s 9s 13 18 mph 992.5mb 43f 39f
9:50 14ft 12s 9s 9 13 mph 992.7mb 43f 39f